Regional Weather Roundup
Issued by NWS Grand Forks, ND

Home | Current Version | Previous Version | Text Only | Print | Product List | Glossary Off
Versions: 1 2 3 4 5 6 7 8 9 10 11 12 13 14 15 16 17 18 19 20 21 22 23 24 25 26 27 28 29 30 31 32 33 34 35 36 37 38 39 40 41 42 43 44 45 46 47 48 49 50

000
ASUS43 KFGF 260131
RWRFGF
PRAIRIE TO PINES  WEATHER ROUNDUP
NATIONAL WEATHER SERVICE EASTERN NORTH DAKOTA/GRAND FORKS ND
800 PM CDT SUN JUN 25 2017

 **SATELLITE DATA USED TO AUGMENT SKY COVER AT AUTOMATED STATIONS**
 *****  WEATHER ACROSS EASTERN NORTH DAKOTA  *****

CITY           SKY/WX    TMP DP  RH WIND       PRES   REMARKS
GRAND FORKS    FAIR      64  42  44 N16       30.17S
GRAND FRKS AFB FAIR      62  38  41 N10       30.19S
DEVILS LAKE    FAIR      63  35  35 N13       30.21S
FARGO          PTSUNNY   65  37  35 N15       30.16R
WAHPETON ARPT  CLOUDY    61  48  63 W7        30.17R
$$

 ***** WEATHER ACROSS CENTRAL AND WESTERN NORTH DAKOTA  *****

CITY           SKY/WX    TMP DP  RH WIND       PRES   REMARKS
BISMARCK       FAIR      69  43  38 NE12G21   30.21R
MINOT          FAIR      65  41  41 N12G20    30.22S
JAMESTOWN      FAIR      64  42  44 N14G21    30.20R
MINOT AFB      FAIR      66  40  38 N7        30.21S
GARRISON         N/A     65  42  43 N7        30.22R
WILLISTON      FAIR      73  41  31 NE12      30.22S
DICKINSON      FAIR      69  37  30 N14       30.21R
HETTINGER      FAIR      70  38  31 NE9       30.23R
$$

 *****  OTHER AIRPORT OBSERVATIONS IN OUR AREA  *****

CITY           SKY/WX    TMP DP  RH WIND       PRES   REMARKS
WALHALLA       NOT AVBL
GRAFTON AIRPOR FAIR      61  43  51 N7        30.21S
VALLEY CITY AR FAIR      63  39  42 N9G15     30.21R
CANDO          NOT AVBL
CAVALIER APRT  FAIR      63  41  45 N8        30.19R
GWINNER        MOCLDY    59  54  82 NW8G14    30.18S
SHEYENNE NWR     N/A     63  48  58 NW5       29.95S
ROLLA            N/A     61  37  41 NW12      30.23S
 ***** THE ABOVE OBSERVATIONS ARE NON NWS ARE NOT QUALITY
       CONTROLLED AND MAY MIS-REPORT RAIN FOR SNOW...
$$

  *****  WEATHER ACROSS NORTHERN MINNESOTA  *****

CITY           SKY/WX    TMP DP  RH WIND       PRES   REMARKS
FLAG ISLAND    FAIR      57  45  62 CALM      30.13F
WARROAD        FAIR      57  46  67 NW5       30.16S
ROSEAU         FAIR      55  46  71 N5        30.17S
HALLOCK        FAIR      61  46  59 N10       30.18S
THF RVR FALLS  FAIR      57  45  64 N7        30.18S
BAUDETTE       FAIR      56  44  64 N9        30.14R
WASKISH        FAIR      57  45  62 N7        30.14S
CROOKSTON      FAIR      61  43  51 N14G20    30.19R
STEPHEN NDAWN    N/A     63  43  48 N10         N/A
GREENBUSH NDAW   N/A     59  43  55 N12         N/A
$$
  *****  WEATHER ACROSS CENTRAL AND WEST MINNESOTA  *****

CITY           SKY/WX    TMP DP  RH WIND       PRES   REMARKS
FOSSTON        FAIR      55  46  71 N8        30.17S
BEMIDJI        FAIR      52  43  70 NW8       30.15S
PARK RAPIDS    FAIR      61  40  45 N10       30.14S
ELBOW LAKE     FAIR      61  47  59 NW6       30.17S
WADENA         PTSUNNY   59  43  55 NW6       30.15R
DETROIT LAKES  FAIR      61  41  48 N9G17     30.17S
MOORHEAD       PTSUNNY   64  37  36 N15       30.17R
FERGUS FALLS   PTSUNNY   63  43  48 N6        30.14R
MORRIS MN      LGT RAIN  57  52  82 W5        30.17F
STAPLES        PTSUNNY   61  37  41 N9        30.14S
$$
  *****  WEATHER ELSEWHERE ACROSS MINNESOTA  *****

CITY           SKY/WX    TMP DP  RH WIND       PRES   REMARKS
DULUTH         FAIR      55  44  66 NW10      30.08S
INTRNTL FALLS  FAIR      54  47  77 CALM      30.13R
ELY            CLOUDY    48  45  87 N3        30.11R
CLOQUET        MOCLDY    52  45  76 W6        30.11S
WHEATON        FAIR      55  54  94 SW3       30.19F
BRAINERD       FAIR      60  43  53 N12       30.14R
HIBBING        FAIR      50  46  86 NW6       30.12S
ALEXANDRIA     FAIR      62  44  51 NW9       30.17S
SAINT CLOUD    MOCLDY    64  41  42 NW13      30.13S
MINNEAPOLIS    FAIR      65  39  38 NW12      30.12S
$$

  *****  WEATHER ACROSS SOUTH DAKOTA  *****

CITY           SKY/WX    TMP DP  RH WIND       PRES   REMARKS
SIOUX FALLS    FAIR      70  48  45 N6        30.18F
BROOKINGS      PTSUNNY   60  45  57 NE9       30.20F
WATERTOWN      CLOUDY    58  50  75 CALM      30.18F
HURON          FAIR      66  47  50 E10       30.15F
SISSETON         N/A     62  46  55 NW8       30.17F
ABERDEEN       FAIR      65  49  56 N5        30.19S
MITCHELL       PTSUNNY   71  45  39 N9        30.18R
PIERRE         FAIR      73  41  31 NE22      30.12S
MOBRIDGE       FAIR      72  40  31 N12G18    30.17R
RAPID CITY     PTSUNNY   78  30  17 N18G28    30.18F
$$

  *****  SOME WEATHER IN NEARBY STATES *****

CITY           SKY/WX    TMP DP  RH WIND       PRES   REMARKS
GLASGOW MT     FAIR      78  34  20 N8        30.18F
GREAT FALLS MT FAIR      80  36  20 E8        30.16F
CHEYENNE WY    FAIR      67  47  48 SE8       30.33S
SCOTTSBLUFF NE FAIR      76  44  32 SE12      30.21F
OMAHA NE       FAIR      74  44  34 N5        30.21F
DES MOINES IA  FAIR      72  41  32 W9        30.19S
DAVENPORT IA   FAIR      66  49  54 NW6       30.15F
CHICAGO IL     MOCLDY    66  47  50 W18G26    30.09R
EAU CLAIRE WI  LGT RAIN  55  49  80 CALM      30.10R
LA CROSSE WI   FAIR      70  46  42 W12       30.10S
$$

  *****  SOME NATIONAL WEATHER *****

CITY           SKY/WX    TMP DP  RH WIND       PRES   REMARKS
LA GUARDIA NY  MOCLDY    77  63  61 S7        29.93R
RALEIGH NC     MOCLDY    74  67  78 W3        30.09R
ATLANTA GA     MOCLDY    72  59  63 NW7       30.16R
NEW ORLEANS LA MOCLDY    82  76  81 S6        30.09R
OKLAHOMA CITY  FAIR      82  48  30 SE8       30.17S
ALBUQUERQUE NM PTSUNNY   73  50  44 E7        30.27R
SALT LAKE CITY FAIR      92  41  17 N10       30.08F
LOS ANGELES CA FAIR      71  61  70 SW10      29.87S
BOISE ID       FAIR      97  28   8 CALM      29.97F HX  91
SEATTLE WA     PTSUNNY   94  54  25 NW12      29.83F HX  92
$$

*** WEATHER ACROSS MANITOBA...SASKATCHEWAN AND ONTARIO ***
                ***ONTARIO***

CITY           SKY/WX    TMP DP  RH WIND       PRES   REMARKS
GERALDTON      MOCLDY    59  36  41 NE3       30.02S
THUNDER BAY    LGT RAIN  52  46  82 CALM      30.03S
SIOUX LOOKOUT  CLOUDY    55  45  67 NW5       30.08S
TORONTO        PTCLDY    63  50  63 W12       29.96R
BIG TROUT LK   PTSUNNY   61  41  48 NW7       29.97S
PICKLE LAKE    MOCLDY    57  43  58 W6        30.03S
DRYDEN         PTSUNNY   55  46  71 W7        30.10S
KENORA         MOSUNNY   55  43  62 VRB2      30.13S
$$
                *** MANITOBA***

CITY           SKY/WX    TMP DP  RH WIND       PRES   REMARKS
BRANDON        MOSUNNY   64  43  45 N7        30.21S
DAUPHIN        MOSUNNY   64  39  39 E8        30.20F
ISLAND LAKE    TSTM      54  50  87 N9G18     30.08R
PILOT MOUND      N/A     61  41  48 N8          N/A
THE PAS        MOSUNNY   64  43  45 N5        30.16S
THOMPSON       MOSUNNY   63  37  39 NW12G22   30.09F
WINNIPEG       MOSUNNY   55  48  76 NW7       30.18F
LYNN LAKE      SUNNY     66  36  32 N7        30.11F
CHURCHILL      PTSUNNY   54  39  58 S6        30.01F
GILLAM         PTSUNNY   59  41  51 N8        30.05S
$$
                ***SASKATCHEWAN***

CITY           SKY/WX    TMP DP  RH WIND       PRES   REMARKS
ESTEVAN        MOSUNNY   66  41  39 NE9       30.23S
KINDERSLEY     MOSUNNY   70  41  35 SE2       30.21F
LLOYDMINSTER   PTSUNNY   70  45  40 SE9       30.19F
PRINCE ALBERT  MOSUNNY   70  39  32 SW5       30.23F
REGINA         MOSUNNY   66  37  34 N10       30.24S
YORKTON        SUNNY     64  36  34 NW10      30.23F
N. BATTLEFORD  SUNNY     70  41  35 E5        30.23F
LA RONGE       MOSUNNY   70  36  28 S9        30.18F
SASKATOON      MOSUNNY   70  39  32 VRB2      30.24F
SWIFT CURRENT  SUNNY     68  37  32 VRB2      30.23S
$$
NOTE: THESE ARE AUTOMATED STATIONS WITH LIMITED QUALITY CONTROL
      "FAIR" INDICATES FEW OR NO CLOUDS BELOW 12,000 FEET WITH NO
      SIGNIFICANT WEATHER AND/OR OBSTRUCTIONS TO VISIBILITY.
      SKY/WX - SKY CONDITION AND SIGNIFICANT WEATHER.
      TMP - AIR TEMPERATURE.    DP   - DEWPOINT TEMPERATURE.
      RH  - RELATIVE HUMIDITY.  PRES - PRESSURE.
      HX  - HEAT INDEX.         WCI  - WIND CHILL INDEX.
$




USA.gov is the U.S. government's official web portal to all federal, state and local government web resources and services.